Location: Cutler
(25.6150°N, 80.3110°W)
Time: 05:48:08
(UTC-05:00)

Vanguard 1 - Pass Details

Date: 30 January 2018
Orbit: 650 x 3833 km, 34.2° (Epoch: 21 February)

Event Time Altitude Azimuth Distance (km) Brightness Sun altitude
Rises 20:46:08 0° 257° (WSW) 3,010 13.5 -36.6°
Reaches altitude 10° 20:48:27 10° 261° (W) 2,043 12.4 -37.1°
Enters shadow 20:49:32 17° 265° (W) 1,609 11.8 -37.4°
Maximum altitude 20:52:46 58° 341° (NNW) 792 - -38.1°
Drops below altitude 10° 20:57:58 10° 61° (ENE) 2,452 - -39.3°
Sets 21:01:00 0° 65° (ENE) 3,695 - -40.0°
